Weather History for KETH - March, 2014

Change the Weather History Date:

Tuesday, March 18, 2014

  Actual Average Record
Temperature  
Mean Temperature 34 °F -  
Max Temperature 37 °F 41 °F 77 °F (2012)
Min Temperature 32 °F 23 °F -6 °F (1993)
Degree Days  
Heating Degree Days 30    
Moisture  
Dew Point 32 °F    
Average Humidity 91    
Maximum Humidity 100    
Minimum Humidity 81    
Precipitation  
Precipitation 0.16 in - - ()
Sea Level Pressure  
Sea Level Pressure 29.79 in    
Wind  
Wind Speed 9 mph (North)    
Max Wind Speed 15 mph    
Max Gust Speed 21 mph    
Visibility 6 miles    
Events Snow    
Averages and records for this station are not official NWS values.
T = Trace of Precipitation, MM = Missing Value Source: NWS Daily Summary

Daily Weather History Graph

Daily Weather History Graph

Search for Another Location

Airport or City:

Trip Planner

Search our weather history database for the weather conditions in past years. The results will help you decide how hot, cold, wet, or windy it might be!

Date:

Astronomy

Mar. 18, 2014 Rise Set
Actual Time 7:32 AM CDT 7:36 PM CDT
Civil Twilight 7:03 AM CDT 8:05 PM CDT
Nautical Twilight 6:28 AM CDT 8:40 PM CDT
Astronomical Twilight 5:53 AM CDT 9:16 PM CDT
Moon 10:03 PM CDT (3/18) 8:16 AM CDT (3/18)
Length of Visible Light 13h 02m
Length of Day
12h 03m
Waning Gibbous, 96% of the Moon is Illuminated
Mar 18
Waning Gibbous
Mar 23
Last Quarter
Mar 30
New
Apr 7
First Quarter
Apr 15
Full

Hourly Weather History & Observations

Time (CDT) Temp. Windchill Dew Point Humidity Pressure Visibility Wind Dir Wind Speed Gust Speed Precip Events Conditions
12:14 AM 35.6 °F 27.5 °F 33.8 °F 93% 29.59 in 10.0 mi NE 11.5 mph - N/A   Overcast
12:34 AM 35.6 °F 28.6 °F 33.8 °F 93% 29.61 in 7.0 mi ENE 9.2 mph - N/A   Overcast
12:54 AM 35.6 °F 28.6 °F 33.8 °F 93% 29.61 in 7.0 mi ENE 9.2 mph - N/A Snow Light Snow
1:14 AM 35.6 °F 28.0 °F 33.8 °F 93% 29.61 in 5.0 mi East 10.4 mph - 0.04 in Snow Light Snow
1:34 AM 35.6 °F 30.7 °F 33.8 °F 93% 29.63 in 1.0 mi ENE 5.8 mph - 0.05 in Snow Light Snow
1:54 AM 33.8 °F 29.6 °F 33.8 °F 100% 29.63 in 1.0 mi NE 4.6 mph - 0.08 in Snow Light Snow
2:14 AM 33.8 °F 30.8 °F 33.8 °F 100% 29.63 in 1.5 mi NNE 3.5 mph - 0.02 in Snow Light Snow
2:34 AM 33.8 °F 29.6 °F 33.8 °F 100% 29.63 in 1.5 mi NNE 4.6 mph - 0.05 in Snow Light Snow
2:54 AM 33.8 °F 29.6 °F 33.8 °F 100% 29.63 in 1.2 mi NNE 4.6 mph - 0.07 in Snow Light Snow
3:14 AM 33.8 °F 29.6 °F 33.8 °F 100% 29.64 in 1.5 mi NE 4.6 mph - N/A Snow Light Snow
3:34 AM 33.8 °F 27.7 °F 33.8 °F 100% 29.64 in 1.8 mi NNE 6.9 mph - 0.01 in Snow Light Snow
3:54 AM 33.8 °F 27.0 °F 33.8 °F 100% 29.64 in 1.8 mi North 8.1 mph - 0.01 in Snow Light Snow
4:14 AM 33.8 °F 27.0 °F 33.8 °F 100% 29.65 in 2.5 mi NNE 8.1 mph - N/A Snow Light Snow
4:34 AM 33.8 °F 27.7 °F 33.8 °F 100% 29.65 in 3.0 mi NNE 6.9 mph - N/A   Overcast
4:54 AM 33.8 °F 27.0 °F 33.8 °F 100% 29.66 in 4.0 mi NNE 8.1 mph - N/A   Overcast
5:13 AM 33.8 °F 28.6 °F 33.8 °F 100% 29.67 in 4.0 mi NNE 5.8 mph - N/A   Overcast
5:33 AM 33.8 °F 28.6 °F 32.0 °F 93% 29.69 in 2.5 mi NE 5.8 mph - N/A   Overcast
5:53 AM 32.0 °F 25.6 °F 30.2 °F 93% 29.69 in 2.5 mi ENE 6.9 mph - N/A Snow Light Snow
6:14 AM 32.0 °F 26.4 °F 30.2 °F 93% 29.70 in 2.5 mi NNE 5.8 mph - N/A Snow Light Snow
6:34 AM 32.0 °F 24.8 °F 30.2 °F 93% 29.71 in 3.0 mi North 8.1 mph - N/A Snow Light Snow
6:54 AM 32.0 °F 25.6 °F 30.2 °F 93% 29.72 in 3.0 mi North 6.9 mph - N/A Snow Light Snow
7:14 AM 32.0 °F 25.6 °F 30.2 °F 93% 29.73 in 4.0 mi North 6.9 mph - N/A   Mostly Cloudy
7:34 AM 32.0 °F 25.6 °F 30.2 °F 93% 29.74 in 5.0 mi North 6.9 mph - N/A   Mostly Cloudy
7:54 AM 32.0 °F 24.8 °F 30.2 °F 93% 29.74 in 5.0 mi North 8.1 mph - N/A   Mostly Cloudy
8:14 AM 32.0 °F 24.8 °F 30.2 °F 93% 29.75 in 7.0 mi North 8.1 mph - N/A   Mostly Cloudy
8:34 AM 32.0 °F 25.6 °F 30.2 °F 93% 29.75 in 7.0 mi North 6.9 mph - N/A   Mostly Cloudy
8:54 AM 32.0 °F 24.8 °F 30.2 °F 93% 29.76 in 7.0 mi NNE 8.1 mph - N/A   Mostly Cloudy
9:14 AM 32.0 °F 25.6 °F 30.2 °F 93% 29.76 in 7.0 mi North 6.9 mph - N/A   Overcast
9:34 AM 32.0 °F 25.6 °F 30.2 °F 93% 29.77 in 7.0 mi North 6.9 mph - N/A   Mostly Cloudy
9:53 AM 33.8 °F 28.6 °F 30.2 °F 87% 29.78 in 10.0 mi North 5.8 mph - N/A   Mostly Cloudy
10:14 AM 33.8 °F 27.7 °F 30.2 °F 87% 29.78 in 7.0 mi North 6.9 mph - N/A   Mostly Cloudy
10:34 AM 33.8 °F 27.0 °F 30.2 °F 87% 29.79 in 7.0 mi North 8.1 mph - N/A   Mostly Cloudy
10:54 AM 33.8 °F 26.4 °F 30.2 °F 87% 29.80 in 7.0 mi North 9.2 mph - N/A   Mostly Cloudy
11:14 AM 33.8 °F 27.0 °F 30.2 °F 87% 29.80 in 10.0 mi North 8.1 mph - N/A   Overcast
11:34 AM 33.8 °F 26.4 °F 30.2 °F 87% 29.81 in 7.0 mi North 9.2 mph - N/A   Overcast
11:54 AM 33.8 °F 24.8 °F 30.2 °F 87% 29.82 in 7.0 mi North 12.7 mph - N/A   Mostly Cloudy
12:14 PM 33.8 °F 25.3 °F 30.2 °F 87% 29.83 in 10.0 mi North 11.5 mph - N/A   Scattered Clouds
12:34 PM 33.8 °F 25.3 °F 30.2 °F 87% 29.83 in 7.0 mi North 11.5 mph - N/A   Scattered Clouds
12:54 PM 33.8 °F 25.3 °F 30.2 °F 87% 29.84 in 7.0 mi North 11.5 mph - N/A   Scattered Clouds
1:14 PM 35.6 °F 28.0 °F 30.2 °F 81% 29.83 in 7.0 mi North 10.4 mph - N/A   Scattered Clouds
1:34 PM 35.6 °F 27.5 °F 32.0 °F 87% 29.83 in 7.0 mi North 11.5 mph - N/A   Scattered Clouds
1:54 PM 35.6 °F 28.0 °F 32.0 °F 87% 29.83 in 5.0 mi NNW 10.4 mph - N/A   Scattered Clouds
2:14 PM 35.6 °F 28.0 °F 33.8 °F 93% 29.83 in 7.0 mi NNW 10.4 mph - N/A   Mostly Cloudy
2:34 PM 35.6 °F 28.6 °F 33.8 °F 93% 29.83 in 7.0 mi North 9.2 mph - N/A   Mostly Cloudy
2:54 PM 37.4 °F 30.3 °F 33.8 °F 87% 29.83 in 7.0 mi North 10.4 mph - N/A   Mostly Cloudy
3:14 PM 35.6 °F 27.1 °F 33.8 °F 93% 29.82 in 7.0 mi NNW 12.7 mph - N/A   Scattered Clouds
3:34 PM 35.6 °F 27.1 °F 33.8 °F 93% 29.82 in 5.0 mi NNW 12.7 mph - N/A   Mostly Cloudy
3:54 PM 35.6 °F 27.5 °F 33.8 °F 93% 29.83 in 5.0 mi NNW 11.5 mph - N/A   Mostly Cloudy
4:14 PM 35.6 °F 27.5 °F 33.8 °F 93% 29.83 in 5.0 mi NNW 11.5 mph - N/A   Mostly Cloudy
4:34 PM 35.6 °F 27.5 °F 33.8 °F 93% 29.84 in 7.0 mi NNW 11.5 mph - N/A   Scattered Clouds
4:54 PM 35.6 °F 26.6 °F 33.8 °F 93% 29.84 in 7.0 mi NNW 13.8 mph - N/A   Mostly Cloudy
5:14 PM 37.4 °F 28.9 °F 33.8 °F 87% 29.84 in 10.0 mi NNW 13.8 mph - N/A   Mostly Cloudy
5:34 PM 35.6 °F 26.2 °F 33.8 °F 93% 29.85 in 7.0 mi NNW 15.0 mph 20.7 mph N/A   Mostly Cloudy
5:54 PM 35.6 °F 26.2 °F 33.8 °F 93% 29.86 in 10.0 mi NNW 15.0 mph 20.7 mph N/A   Mostly Cloudy
6:14 PM 35.6 °F 26.2 °F 33.8 °F 93% 29.87 in 10.0 mi NNW 15.0 mph 20.7 mph N/A   Overcast
6:34 PM 35.6 °F 26.6 °F 32.0 °F 87% 29.88 in 10.0 mi NW 13.8 mph 18.4 mph N/A   Overcast
6:54 PM 35.6 °F 26.2 °F 32.0 °F 87% 29.89 in 7.0 mi NW 15.0 mph 20.7 mph N/A   Overcast
7:14 PM 35.6 °F 27.1 °F 32.0 °F 87% 29.90 in 10.0 mi NW 12.7 mph 19.6 mph N/A   Overcast
7:34 PM 33.8 °F 25.3 °F 30.2 °F 87% 29.90 in 10.0 mi NNW 11.5 mph 19.6 mph N/A   Overcast
7:54 PM 33.8 °F 24.3 °F 30.2 °F 87% 29.91 in 7.0 mi NW 13.8 mph - N/A   Overcast
8:14 PM 33.8 °F 24.3 °F 30.2 °F 87% 29.92 in 7.0 mi NW 13.8 mph 18.4 mph N/A   Overcast
8:34 PM 33.8 °F 23.9 °F 30.2 °F 87% 29.92 in 10.0 mi NW 15.0 mph - N/A   Overcast
8:54 PM 33.8 °F 24.8 °F 30.2 °F 87% 29.93 in 10.0 mi NNW 12.7 mph - N/A   Mostly Cloudy
9:14 PM 32.0 °F 23.6 °F 30.2 °F 93% 29.93 in 10.0 mi NNW 10.4 mph - N/A   Scattered Clouds
9:34 PM 32.0 °F 23.0 °F 30.2 °F 93% 29.93 in 10.0 mi NNW 11.5 mph - N/A   Mostly Cloudy
9:54 PM 32.0 °F 24.2 °F 30.2 °F 93% 29.93 in 7.0 mi NW 9.2 mph - N/A   Overcast
10:14 PM 32.0 °F 22.5 °F 30.2 °F 93% 29.93 in 10.0 mi NW 12.7 mph - N/A   Overcast
10:34 PM 33.8 °F 24.8 °F 30.2 °F 87% 29.93 in 10.0 mi NW 12.7 mph 18.4 mph N/A   Overcast
10:54 PM 33.8 °F 24.8 °F 30.2 °F 87% 29.93 in 10.0 mi NW 12.7 mph - N/A   Overcast
11:14 PM 33.8 °F 24.3 °F 30.2 °F 87% 29.94 in 10.0 mi NW 13.8 mph - N/A   Overcast
11:34 PM 33.8 °F 24.8 °F 28.4 °F 81% 29.93 in 10.0 mi NW 12.7 mph 18.4 mph N/A   Overcast
11:54 PM 33.8 °F 24.8 °F 28.4 °F 81% 29.94 in 10.0 mi NW 12.7 mph - N/A   Overcast